Regional Weather Roundup
Issued by NWS

Home | Current Version | Previous Version | Graphics & Text | Print | Product List | Glossary On
Versions: 1 2 3 4 5 6 7 8 9 10 11 12 13 14 15 16 17 18 19 20 21 22 23 24 25 26 27 28 29 30 31 32 33 34 35 36 37 38 39 40 41 42 43 44 45 46 47 48 49 50
173
ASUS43 KFSD 220302
RWRSD

WEATHER ROUNDUP FOR SOUTH DAKOTA
NATIONAL WEATHER SERVICE SIOUX FALLS SD
1000 PM CDT SAT OCT 21 2017

NOTE: "FAIR" INDICATES FEW OR NO CLOUDS BELOW 12,000 FEET WITH NO
SIGNIFICANT WEATHER AND/OR OBSTRUCTIONS TO VISIBILITY.


SDZ001>005-009-010-012>017-220400-
NORTHWEST AND NORTH CENTRAL SOUTH DAKOTA

CITY           SKY/WX    TMP DP  RH WIND       PRES   REMARKS
BUFFALO          N/A     39  22  50 W8        29.85R
MOBRIDGE       CLOUDY    47  35  63 W8        29.84R
$$

SDZ012>016-024>037-041>051-057-063-072>074-220400-
SOUTHWEST AND SOUTH CENTRAL SOUTH DAKOTA

CITY           SKY/WX    TMP DP  RH WIND       PRES   REMARKS
RAPID CTY ARPT CLEAR     42  18  37 SW6       29.97R
PIERRE         CLEAR     46  35  65 W7        29.91R
CUSTER         CLEAR     34  10  37 CALM      29.99S
ELLSWORTH AFB  CLEAR     36  17  46 W7        29.96R
PHILIP         CLEAR     39  29  67 SW8       29.95S
PINE RIDGE     CLEAR     30  23  75 CALM      30.01R
SPEARFISH      FAIR      39  16  38 SW7       29.97S
WINNER         FAIR      45  31  58 W8        29.96R
$$

SDZ004>011-016>023-039-040-220400-
NORTHEAST SOUTH DAKOTA

CITY           SKY/WX    TMP DP  RH WIND       PRES   REMARKS
ABERDEEN       CLOUDY    48  40  73 W9        29.83S
WATERTOWN      PTCLDY    43  39  86 W9        29.83R
BROOKINGS      CLEAR     42  38  85 SW8       29.88R
SISSETON         N/A     51  40  65 W12G22    29.78R
$$

SDZ017-020-022-023-036>040-048>070-220400-
SOUTHEAST SOUTH DAKOTA

CITY           SKY/WX    TMP DP  RH WIND       PRES   REMARKS
SIOUX FALLS    CLEAR     47  40  76 W6        29.90R
HURON          PTCLDY    47  37  68 W9        29.89R
CHAMBERLAIN    CLEAR     45  36  70 W3        29.94R
MITCHELL       CLEAR     49  36  61 W10       29.94R
YANKTON        CLEAR     45  37  73 SW7       29.92S
$$

ABBREVIATIONS USED IN REMARKS
   TC - TEMPERATURE IN CELSIUS
  WCI - WIND CHILL INDEX
   HX - HEAT INDEX
  VSB - VISIBILITY





USA.gov is the U.S. government's official web portal to all federal, state and local government web resources and services.